Skip Page Navigation
NASA JPL Caltech
NASA Logo - Jet Propulsion Laboratory + View the NASA Portal
+ Center for Near-Earth Object Studies
JPL Home Earth Solar System Stars & Galaxies Technology
JPL Solar System Dynamics
BODIES ORBITS EPHEMERIDES TOOLS PHYSICAL DATA DISCOVERY FAQ SITE MAP
IMPORTANT: The SSD Announcement email list is now available. Major changes are coming in the near future, including possible hostname and/or URL changes. To be notified of such changes, subscribe to this email list.

Please visit this page for more details.


JPL Small-Body Database Browser
Search: [ help ]  
11064 Dogen (1991 WB)
Classification: Main-belt Asteroid          SPK-ID: 2011064
Ephemeris | Orbit Diagram | Orbital Elements | Mission Design | Physical Parameters | Discovery Circumstances ]

[ hide orbit diagram ]

For accurate long-term ephemerides, please instead use our Horizons system.This orbit viewer was implemented using two-body methods, and hence should not be used for determining accurate long-term trajectories (over several years or decades) or planetary encounter circumstances.


[ revert to old Java-based viewer ]

Orbital Elements at Epoch 2458600.5 (2019-Apr-27.0) TDB
Reference: JPL 28 (heliocentric ecliptic J2000)
 Element Value Uncertainty (1-sigma)   Units 
e .3284263924525041 5.8309e-08  
a 2.749178408078629 1.6086e-08 au
q 1.846275661305046 1.6207e-07 au
i 35.97702897721232 7.0008e-06 deg
node 78.99149256945485 9.8129e-06 deg
peri 315.0606751037113 1.2474e-05 deg
M 28.6742741985745 1.0379e-05 deg
tp 2458467.884970430015
(2018-Dec-15.38497043)
4.7505e-05 TDB
period 1664.956201317484
4.56
1.4613e-05
4.001e-08
d
yr
n .2162219040447617 1.8977e-09 deg/d
Q 3.652081154852211 2.1369e-08 au
  Orbit Determination Parameters
   # obs. used (total)      2278  
   data-arc span      15398 days (42.16 yr)  
   first obs. used      1977-10-10  
   last obs. used      2019-12-07  
   planetary ephem.      DE431  
   SB-pert. ephem.      SB431-N16  
   condition code      0  
   norm. resid. RMS      .35675  
   source      ORB  
   producer      Otto Matic  
   solution date      2019-Dec-13 23:11:24  

Additional Information
 Earth MOID = .943832 au 
 Jupiter MOID = 2.00688 au 
 T_jup = 3.004 
[ show covariance matrix ]

Ephemeris | Orbit Diagram | Orbital Elements | Mission Design | Physical Parameters | Discovery Circumstances ]

Physical Parameter Table
Parameter Symbol Value Units Sigma Reference Notes
absolute magnitude H 12.8   n/a MPO384854  
diameter diameter 9.049 km 0.085 urn:nasa:pds:neowise_diameters_albedos::2.0[mainbelt] (http://adsabs.harvard.edu/abs/2014ApJ...791..121M)  
rotation period rot_per 4.163 h n/a LCDB (Rev. 2019-January); Warner et al., 2009 Published Reference List:
[Krotz, J.; Albers, K.; Carbo, L.; Kragh, K.; et al. (2010) Minor Planet Bull. 37, 99-101.]
[Waszczak, A.; Chang, C.-K.; Ofeck, E.O.; Laher, F.; et al. (2015) Astron. J. 150, A75.]
geometric albedo albedo 0.181   0.013 urn:nasa:pds:neowise_diameters_albedos::2.0[mainbelt] (http://adsabs.harvard.edu/abs/2014ApJ...791..121M)  

11064 Dogen           Discovered 1991 Nov. 30 by M. Mukai and M. Takeishi at the JCPM Kagoshima Station.
The Japanese priest Dogen Zenji (1200-1253) built Eiheiji Temple in Fukui prefecture in 1243 in order to preach Zen Buddhism, and he fostered many disciples there. In Eiheiji Temple, over 200 monks still practise asceticism.
NOTE: some special characters may not display properly (any characters within {} are an attempt to place the proper accent above a character)
Reference: 20030106/MPCPages.arcLast Updated: 2003-10-02
Ephemeris | Orbit Diagram | Orbital Elements | Mission Design | Physical Parameters | Discovery Circumstances ]
ABOUT SSD CREDITS/AWARDS PRIVACY/COPYRIGHT GLOSSARY LINKS
FirstGov 2019-Dec-14 08:56 UT
(server date/time)  
NASA Home Page
Site Manager:   Ryan S. Park
Webmaster  Alan B. Chamberlin